Weather in Kalyves

Greece     35°27′08″N   24°10′20″E
temp.,
°C
wind,
m/s
gust,
m/s
humid.,
%
clouds,
%
prec.,
mm/h
press.,
hPa
HPBL,
m
13 may, thu
thu1300:00+19w22630 0.0 101142
03:00+19wnw24600 0.0 100990
06:00+18w35625 0.0 1009123
09:00+20wnw24604 0.0 1010166
12:00+21nw67630 0.0 1011346
15:00+21nw89645 0.0 1011424
18:00+21wnw8105712 0.0 1011321
21:00+19w5663100 0.0 1012155
14 may, fri
fri1400:00+19w34655 0.0 1013104
03:00+18w246312 0.0 1013107
06:00+18w35570 0.0 1013130
09:00+20w34530 0.0 1014148
12:00+21nw79580 0.0 1015356
15:00+21nw710600 0.0 1015408
18:00+21wnw58580 0.0 1014233
21:00+19wsw23640 0.0 101438
15 may, sat
sat1500:00+19w22621 0.0 101427
03:00+19wsw12615 0.0 101324
06:00+19wnw11570 0.0 101317
09:00+21nnw22500 0.0 101479
12:00+21nw34624 0.0 1013273
15:00+21nw3566100 0.0 1012339
18:00+20nw4668100 0.0 1012272
21:00+19wnw2474100 0.0 101181
16 may, sun
sun1600:00+19wsw11700 0.0 101026
03:00+18wnw57680 0.0 1009272
06:00+17w587393 0.0 1009415
09:00+19wnw696637 0.0 1010731
12:00+19nw66709 0.0 1011508
15:00+19nw55735 0.0 1011465
18:00+19nw777369 0.0 1010603
21:00+18w58769 0.0 1011420
17 may, mon
mon1700:00+18wsw58762 0.0 1011392
03:00+18wsw24728 0.0 1010203
06:00+18w347196 0.0 1011168
09:00+19wnw11675 0.0 1012142
12:00+19n22695 0.0 1013241
15:00+21nnw32630 0.0 1013301
18:00+20nw33690 0.0 1013253
21:00+19w22770 0.0 101343